Tracking 21470 objects as of 23-Sep-2020
HD Live streaming from Space Station
objects crossing your sky now

STARLINK-1343

Track STARLINK-1343 now!
10-day predictions
STARLINK-1343 is classified as:


NORAD ID: 45584
Int'l Code: 2020-025BF
Perigee: 555.9 km
Apogee: 557.8 km
Inclination: 53.0 °
Period: 95.6 minutes
Semi major axis: 6927 km
RCS: Unknown
Launch date: April 22, 2020
Source: United States (US)
Launch site: AIR FORCE EASTERN TEST RANGE (AFETR)
aabbcc
Your satellite tracking list
Your tracking list is empty




NASA's NSSDC Master Catalog

Two Line Element Set (TLE):
1 45584U 20025BF  20266.91667824 -.00021074 +00000-0 -14311-2 0  9992
2 45584 053.0019 027.0088 0001411 091.7736 190.1225 15.05589559001802
Source of the keplerian elements: AFSPC